Wind_Speed
36 34 35 35 34 35 38 37 43 46 49 46 39 42 42 42 45 47 47 49 51 52 54 54 56 52 53 57 55 55 48 51 54 50 45 54 54 45 52 48 50 53 56
39 39 39 38 39 39 40 42 44 48 51 47 44 42 42 41 44 46 50 53 57 54 57 55 52 51 61 58 62 56 50 56 67 63 62 57 53 50 50 50 58 61 66
43 43 44 42 43 42 43 46 47 51 53 49 45 46 45 46 47 51 54 57 61 62 66 65 54 51 60 69 70 58 63 59 65 66 57 64 62 59 59 63 64 70 77
49 50 47 47 47 46 48 48 51 52 52 50 48 45 48 50 52 55 59 62 64 68 64 63 68 74 82 78 66 73 84 79 74 69 64 62 60 61 68 75 75 77 88
54 53 52 53 51 52 53 54 54 54 54 53 50 51 52 52 56 58 61 62 64 69 75 79 82 84 75 72 72 79 74 76 69 71 65 65 71 75 81 81 88 89 78
57 55 56 57 57 57 58 59 57 56 55 53 52 54 56 58 58 62 65 68 69 70 72 77 76 72 75 76 80 73 70 72 79 72 74 76 81 87 90 90 94 80 73
58 60 61 62 62 62 63 62 60 60 56 54 53 53 58 60 64 66 71 72 71 68 70 77 80 78 75 74 74 74 74 77 76 78 81 85 89 94 89 93 88 78 74
65 65 66 67 66 66 67 65 65 64 61 59 54 53 57 60 65 68 75 75 70 67 69 72 72 73 69 72 71 75 74 78 81 84 88 93 92 92 92 93 86 76 78
71 71 70 71 71 70 71 70 69 67 67 63 58 61 64 66 67 73 75 71 66 68 68 70 68 68 74 79 75 80 85 90 88 89 82 87 89 85 87 82 79 77 76
74 75 75 74 73 73 73 72 69 70 68 65 68 70 71 74 75 76 71 69 70 73 75 76 73 76 81 85 87 89 93 96 94 92 86 80 84 84 82 80 80 76 68
77 78 79 78 75 74 74 73 71 72 72 72 72 74 75 77 77 69 69 67 72 76 74 73 77 86 87 85 87 86 86 84 83 83 82 83 82 77 77 78 75 65 53
81 81 80 81 77 75 72 71 72 71 72 72 73 77 80 77 75 75 75 76 81 84 86 90 85 88 88 86 86 85 81 79 79 79 78 78 78 80 79 75 62 50 46
84 83 83 81 76 76 74 72 71 71 73 76 79 79 81 77 76 78 79 82 87 90 93 92 91 87 84 79 75 73 73 74 74 75 77 79 79 77 73 61 54 48 43
86 85 82 79 75 75 76 75 75 75 78 81 83 82 80 78 78 84 87 90 94 97 96 93 89 84 78 74 71 72 72 74 77 78 80 79 74 68 58 53 44 39 39
84 83 81 80 78 77 78 79 77 79 82 83 83 84 85 85 85 87 91 94 95 93 87 83 80 76 73 74 75 76 76 80 82 81 78 71 61 56 50 45 42 38 36
84 83 82 81 81 80 80 80 82 83 86 86 87 86 87 87 88 90 93 90 85 83 80 77 77 77 78 78 78 80 81 83 81 74 66 60 56 50 46 40 36 33 33
84 83 81 82 82 81 82 81 80 82 84 86 86 88 87 90 93 92 90 88 83 81 82 83 83 82 82 83 84 86 83 74 66 61 59 51 46 41 39 36 33 30 29
81 80 80 80 81 80 77 76 80 81 83 85 88 87 89 93 91 88 86 84 84 85 85 86 85 87 89 88 85 76 66 61 57 53 50 44 40 37 35 33 28 27 27
80 79 82 81 79 78 81 79 81 81 85 87 87 88 91 89 88 87 85 88 87 88 89 91 91 87 82 75 66 61 57 51 48 47 43 39 36 33 31 28 25 25 25
82 79 74 72 76 78 78 81 85 86 82 81 87 89 90 87 87 89 90 89 89 91 88 79 73 68 64 61 56 52 48 44 43 41 38 34 32 30 28 25 23 24 24
75 72 72 75 78 78 80 82 82 83 84 85 84 85 90 88 89 90 90 89 90 80 70 66 62 57 55 53 48 45 42 40 38 38 35 32 29 28 26 24 23 24 25
73 73 76 77 78 80 81 83 82 84 85 84 85 87 88 90 91 90 91 89 76 66 59 58 55 52 49 46 43 41 39 39 36 34 32 30 29 27 26 23 22 24 27
73 77 76 78 80 83 82 81 83 85 85 84 85 87 91 92 91 89 89 73 64 59 56 51 48 46 43 41 40 37 36 34 34 31 28 27 26 25 24 22 22 24 28
81 85 84 84 82 82 81 83 84 84 86 84 87 89 93 93 90 88 70 62 56 50 46 43 42 41 40 37 35 33 31 30 29 28 26 26 24 23 20 20 22 24 30
79 81 82 82 87 88 85 85 84 85 86 88 91 93 95 92 87 68 60 51 45 43 42 40 39 38 36 36 35 32 29 27 27 26 25 25 23 21 19 18 20 23 30
90 95 95 88 87 87 87 86 85 86 88 92 92 96 91 85 65 54 50 48 44 41 40 38 38 37 35 33 33 33 31 28 26 24 24 23 21 20 19 18 18 22 29
Wind_Direction
297 299 300 305 305 304 309 316 317 320 323 316 311 313 314 307 305 307 308 312 314 311 307 308 311 311 310 312 311 314 312 310 318 319 323 326 324 321 324 317 313 309 303
294 295 295 301 303 303 307 311 314 317 318 314 307 311 314 303 304 300 302 304 308 303 303 304 307 295 304 307 308 308 304 309 312 316 321 323 322 320 315 306 312 314 313
290 291 293 298 299 300 304 308 310 313 314 310 305 306 311 311 307 307 308 308 304 303 302 305 302 292 294 300 304 301 306 305 310 316 319 319 318 318 314 313 310 310 309
288 288 292 295 296 298 300 304 306 308 309 307 302 304 310 313 314 311 308 302 300 298 299 295 291 293 297 300 302 299 302 306 307 314 316 316 314 312 311 311 311 306 308
283 287 290 291 292 294 297 300 305 305 307 305 300 298 303 308 312 311 310 306 303 302 293 294 295 295 298 298 299 303 305 305 308 310 310 309 310 308 308 306 306 310 305
281 285 287 288 289 291 297 299 303 304 304 302 300 300 301 305 308 310 310 309 307 305 296 294 295 296 295 298 302 302 301 304 307 306 306 305 305 305 304 307 310 306 304
279 282 283 285 289 293 295 300 304 303 303 303 301 301 302 305 310 307 308 309 308 301 296 293 292 293 296 299 300 298 297 297 298 301 301 302 302 306 305 307 309 305 300
277 279 282 284 288 293 296 301 304 304 303 305 302 300 301 302 306 306 307 306 306 303 299 294 295 291 291 293 291 296 298 301 302 301 299 299 301 303 303 305 303 300 300
277 279 282 285 290 295 300 303 305 305 305 306 306 304 303 306 306 307 308 305 303 303 299 299 295 289 287 292 291 291 296 297 300 301 300 300 302 302 302 303 300 300 297
276 280 283 287 292 296 299 302 303 302 304 304 302 304 308 309 309 306 307 303 300 301 298 296 291 291 293 292 293 295 295 298 297 299 298 300 302 303 304 303 300 299 296
277 281 284 288 292 295 298 299 299 299 302 303 306 307 307 308 309 305 305 299 297 298 298 295 298 298 298 300 300 300 300 300 300 299 300 302 301 301 300 299 301 300 293
277 280 284 287 291 292 293 295 297 300 302 303 304 304 304 307 306 302 301 297 298 297 298 298 298 299 301 298 298 299 300 299 299 300 301 300 300 300 300 301 299 292 286
277 281 284 286 288 290 292 294 294 295 295 298 300 300 302 302 301 299 297 297 299 299 299 301 301 304 302 301 300 300 301 302 302 301 300 299 299 299 299 298 294 292 284
278 280 282 283 286 288 291 292 293 294 293 296 296 298 299 298 298 297 299 298 301 301 301 303 303 304 304 304 304 303 304 302 301 300 300 299 299 300 296 293 290 289 281
276 277 279 282 285 288 289 292 293 292 293 295 295 296 297 298 300 301 302 301 300 302 303 303 303 304 305 304 304 304 302 302 301 300 301 301 299 295 290 287 286 282 275
275 278 280 283 285 287 289 290 290 291 293 294 295 296 298 300 302 301 301 301 302 303 304 305 305 304 304 304 304 304 304 302 301 300 299 298 295 290 285 283 281 273 269
275 278 282 284 287 287 288 291 290 292 293 294 295 298 300 302 303 303 304 304 304 305 305 304 304 305 306 305 306 305 303 302 301 299 299 295 292 287 284 279 274 268 260
276 278 282 284 286 288 288 288 290 291 292 294 296 299 301 302 303 304 303 304 305 305 305 305 306 305 305 304 303 303 302 302 302 301 299 294 292 287 280 275 269 260 251
276 281 282 283 284 285 287 288 288 289 292 294 298 301 301 302 302 303 305 306 307 307 307 305 304 303 301 300 301 302 301 302 303 302 300 295 292 288 281 274 265 256 243
274 278 278 279 281 284 286 286 288 291 293 294 298 300 300 303 304 306 307 308 308 307 306 303 300 299 301 301 300 300 299 301 303 305 302 298 294 288 281 273 260 251 238
274 276 275 278 282 285 286 287 290 291 293 296 298 300 302 305 306 307 308 309 308 307 303 302 301 302 302 301 301 301 299 300 303 303 301 301 297 292 285 274 260 245 230
274 277 281 283 285 285 286 288 289 292 295 298 300 302 305 305 308 309 310 310 308 305 302 302 302 303 304 303 303 301 300 298 299 298 296 296 294 290 285 276 259 242 224
277 276 281 285 286 287 288 289 291 294 296 299 302 304 305 308 309 311 310 306 304 304 302 303 303 304 306 305 303 301 300 295 294 293 292 290 287 283 281 272 253 240 221
276 276 278 284 285 285 288 289 291 294 296 300 301 303 307 309 310 309 305 302 303 303 303 304 304 306 306 305 305 303 301 298 291 293 288 285 281 276 273 265 249 239 218
280 279 280 282 286 286 288 288 290 291 295 299 300 304 308 309 309 304 302 299 300 300 302 304 304 304 308 309 311 310 308 302 293 286 283 280 276 269 264 264 249 239 218
277 281 285 284 285 285 287 287 290 292 295 298 302 305 307 307 301 299 297 298 300 300 299 299 301 303 305 306 310 314 313 310 300 286 281 279 273 268 259 256 249 236 219
Height
10947 10946 10944 10943 10941 10938 10932 10929 10923 10919 10914 10909 10906 10900 10894 10888 10881 10877 10873 10868 10864 10861 10856 10851 10845 10838 10835 10831 10827 10821 10818 10813 10810 10810 10807 10803 10799 10797 10795 10791 10788 10786 10781
10939 10938 10936 10935 10933 10930 10925 10920 10918 10913 10907 10903 10898 10894 10888 10880 10874 10869 10865 10862 10856 10851 10846 10841 10836 10830 10826 10821 10816 10810 10805 10800 10794 10791 10790 10785 10781 10776 10776 10775 10770 10764 10760
10930 10928 10926 10926 10923 10922 10917 10912 10911 10905 10900 10895 10891 10885 10880 10874 10866 10859 10854 10849 10844 10840 10836 10831 10827 10821 10815 10813 10808 10802 10795 10788 10783 10777 10769 10768 10763 10758 10756 10751 10747 10742 10736
10919 10917 10917 10915 10913 10912 10908 10906 10901 10898 10891 10886 10880 10875 10869 10863 10858 10851 10845 10839 10833 10827 10823 10820 10817 10810 10803 10797 10793 10788 10780 10774 10768 10764 10759 10753 10749 10743 10738 10733 10728 10721 10714
10908 10906 10906 10903 10903 10900 10898 10895 10893 10889 10883 10876 10870 10865 10861 10856 10850 10844 10838 10832 10827 10820 10812 10807 10800 10795 10788 10781 10776 10768 10763 10757 10753 10750 10745 10738 10732 10729 10723 10716 10711 10698 10686
10896 10896 10894 10891 10889 10889 10887 10885 10884 10878 10872 10867 10860 10854 10848 10843 10838 10832 10826 10819 10810 10804 10800 10792 10784 10778 10773 10764 10761 10754 10748 10742 10737 10730 10725 10720 10714 10708 10702 10692 10684 10675 10666
10885 10882 10881 10879 10877 10877 10876 10873 10870 10863 10859 10855 10850 10843 10836 10829 10823 10817 10810 10805 10799 10792 10786 10778 10774 10766 10760 10753 10745 10739 10731 10726 10722 10715 10708 10700 10693 10684 10679 10670 10659 10651 10639
10869 10869 10867 10866 10866 10865 10862 10859 10855 10849 10844 10841 10837 10832 10827 10820 10814 10805 10797 10790 10781 10777 10770 10763 10759 10752 10744 10736 10732 10723 10712 10703 10698 10693 10688 10680 10673 10665 10656 10649 10638 10628 10616
10852 10853 10854 10852 10852 10849 10844 10842 10837 10832 10826 10825 10820 10815 10812 10806 10800 10791 10783 10772 10764 10759 10754 10749 10743 10734 10725 10717 10711 10703 10695 10686 10680 10674 10665 10656 10647 10639 10634 10627 10617 10608 10597
10841 10841 10840 10838 10837 10834 10830 10826 10822 10816 10813 10808 10805 10799 10792 10785 10781 10771 10764 10756 10749 10744 10738 10732 10725 10712 10708 10700 10689 10681 10674 10666 10658 10648 10642 10634 10625 10613 10607 10601 10592 10586 10576
10831 10827 10826 10825 10825 10822 10816 10811 10808 10803 10798 10793 10788 10782 10777 10770 10763 10752 10747 10742 10733 10728 10721 10715 10706 10691 10682 10676 10668 10658 10650 10642 10634 10626 10617 10609 10602 10596 10590 10582 10572 10561 10553
10816 10815 10814 10810 10810 10806 10805 10802 10794 10789 10782 10777 10773 10767 10761 10755 10747 10738 10734 10725 10716 10708 10702 10694 10687 10675 10667 10657 10647 10637 10629 10620 10611 10603 10596 10589 10580 10571 10563 10556 10549 10543 10538
10801 10799 10797 10795 10794 10789 10787 10787 10781 10776 10769 10763 10757 10752 10746 10740 10732 10720 10713 10703 10694 10686 10677 10672 10665 10655 10644 10634 10625 10617 10608 10599 10590 10583 10575 10566 10558 10550 10541 10536 10529 10525 10519
10783 10782 10781 10779 10779 10775 10772 10768 10765 10759 10753 10748 10741 10736 10732 10725 10718 10706 10697 10686 10677 10665 10656 10650 10639 10631 10623 10613 10607 10596 10587 10579 10570 10562 10552 10542 10534 10527 10522 10518 10511 10508 10506
10764 10762 10763 10762 10762 10760 10755 10750 10747 10740 10734 10728 10721 10717 10711 10706 10697 10688 10678 10669 10658 10647 10638 10630 10619 10609 10603 10595 10586 10578 10570 10557 10547 10536 10526 10518 10512 10508 10505 10502 10497 10495 10493
10744 10745 10745 10745 10743 10741 10737 10731 10726 10721 10716 10708 10701 10696 10690 10685 10677 10667 10658 10647 10637 10627 10616 10607 10600 10594 10584 10574 10566 10556 10546 10534 10522 10513 10505 10499 10495 10491 10488 10485 10483 10482 10480
10727 10728 10728 10726 10723 10719 10716 10711 10705 10700 10692 10687 10680 10673 10666 10659 10651 10641 10631 10623 10614 10605 10595 10586 10578 10567 10558 10548 10538 10529 10519 10511 10501 10493 10487 10482 10478 10475 10471 10470 10470 10469 10469
10709 10710 10711 10707 10703 10699 10696 10689 10686 10679 10673 10666 10660 10654 10645 10637 10628 10619 10610 10601 10593 10582 10571 10562 10553 10542 10532 10523 10515 10506 10498 10490 10483 10475 10471 10467 10463 10460 10456 10456 10457 10457 10459
10694 10693 10690 10689 10684 10679 10675 10669 10661 10661 10654 10646 10641 10633 10624 10617 10609 10599 10589 10578 10568 10559 10548 10537 10526 10518 10510 10501 10494 10487 10480 10474 10468 10463 10457 10453 10450 10447 10444 10444 10445 10446 10449
10676 10676 10673 10671 10664 10660 10654 10649 10641 10635 10638 10634 10623 10614 10601 10598 10587 10577 10566 10555 10546 10533 10523 10513 10503 10496 10489 10482 10476 10471 10466 10461 10456 10451 10446 10442 10438 10436 10434 10434 10435 10437 10441
10659 10657 10653 10651 10647 10641 10634 10628 10622 10615 10613 10613 10608 10597 10576 10575 10567 10557 10545 10533 10523 10511 10500 10494 10486 10479 10473 10467 10462 10458 10453 10449 10445 10440 10436 10433 10430 10427 10426 10426 10427 10430 10434
10642 10640 10634 10630 10627 10620 10614 10610 10603 10598 10592 10590 10580 10571 10565 10554 10545 10533 10521 10511 10500 10492 10486 10477 10471 10465 10460 10454 10449 10445 10441 10438 10435 10431 10428 10425 10423 10421 10419 10419 10420 10423 10427
10619 10620 10617 10610 10606 10600 10595 10590 10584 10577 10570 10570 10560 10551 10542 10533 10522 10514 10503 10492 10484 10477 10470 10465 10459 10454 10448 10444 10439 10435 10432 10429 10426 10422 10420 10419 10417 10415 10413 10412 10414 10417 10422
10602 10598 10596 10592 10586 10579 10577 10570 10564 10558 10551 10548 10540 10535 10524 10512 10504 10492 10484 10476 10470 10464 10459 10454 10449 10444 10439 10435 10430 10426 10423 10419 10416 10414 10412 10412 10410 10409 10408 10407 10408 10411 10416
10580 10576 10572 10571 10565 10558 10556 10549 10546 10538 10533 10527 10519 10512 10505 10494 10482 10473 10467 10463 10458 10454 10449 10444 10440 10435 10431 10426 10421 10417 10414 10410 10408 10407 10405 10404 10403 10402 10402 10401 10402 10405 10409
10559 10553 10549 10545 10541 10538 10532 10528 10525 10519 10514 10505 10501 10494 10483 10476 10468 10460 10455 10451 10447 10443 10440 10436 10433 10428 10422 10418 10413 10408 10405 10402 10401 10399 10398 10396 10396 10396 10396 10396 10397 10399 10404